This is the latest recevied weather packets stored in our database for station/object K3JSE-2. If no packets are shown the sender has not sent any weather packets the latest 10 day(s).
| Time | Temp. | Humidity | Pressure | Rain* | Wind** | Luminosity | Snow |
|---|---|---|---|---|---|---|---|
| 1778187083 | 16.67° C | 40% | 1008.6 hPa | 0 mm | - | - | - |
| 1778186828 | 17.22° C | 38% | 1008.5 hPa | 0 mm | - | - | - |
| 1778186558 | 17.78° C | 38% | 1008.5 hPa | 0 mm | - | - | - |
| 1778186273 | 18.33° C | 42% | 1008.4 hPa | 0 mm | - | - | - |
| 1778186028 | 17.78° C | 37% | 1008.4 hPa | 0 mm | - | - | - |
| 1778185773 | 17.78° C | 36% | 1008.2 hPa | 0 mm | - | - | - |
| 1778185740 | 17.78° C | 36% | 1008.1 hPa | 0 mm | - | - | - |
| 1778185503 | 17.78° C | 35% | 1008.2 hPa | 0 mm | - | - | - |
| 1778185253 | 17.78° C | 35% | 1008.3 hPa | 0 mm | - | - | - |
| 1778184978 | 17.78° C | 37% | 1008.3 hPa | 0 mm | - | - | - |
| 1778184723 | 18.33° C | 37% | 1008.5 hPa | 0 mm | - | - | - |
| 1778184423 | 18.33° C | 39% | 1008.4 hPa | 0 mm | - | - | - |
| 1778184300 | 17.78° C | 40% | 1008.4 hPa | 0 mm | - | - | - |
| 1778184148 | 17.78° C | 37% | 1008.5 hPa | 0 mm | - | - | - |
| 1778183848 | 17.78° C | 39% | 1008.5 hPa | 0 mm | - | - | - |
| 1778183665 | 17.78° C | 38% | 1008.5 hPa | 0 mm | - | - | - |
| 1778183598 | 17.78° C | 34% | 1008.5 hPa | 0 mm | - | - | - |
| 1778183317 | 17.78° C | 38% | 1008.6 hPa | 0 mm | - | - | - |
| 1778183043 | 17.78° C | 37% | 1008.6 hPa | 0 mm | - | - | - |
| 1778183015 | 17.78° C | 37% | 1008.6 hPa | 0 mm | - | - | - |
| 1778182751 | 17.78° C | 38% | 1008.7 hPa | 0 mm | - | - | - |
| 1778182458 | 17.22° C | 35% | 1008.7 hPa | 0 mm | - | - | - |
| 1778182320 | 17.22° C | 37% | 1008.9 hPa | 0 mm | - | - | - |
| 1778182193 | 17.22° C | 38% | 1008.9 hPa | 0 mm | - | - | - |
| 1778181953 | 17.22° C | 38% | 1008.9 hPa | 0 mm | - | - | - |
* Rain latest hour (hover to see other rain measurements)
** Current wind speed in m/s (hover to see current wind gust speed)